www.pogodaiklimat.ru

Погода и климат >> Архив погоды >> Австралия >> Южная Австралия >> Сидуна


ПОГОДА в Сидуне

  • Прогноз погоды в Сидуне
  • Монитор погоды в Сидуне

АРХИВ ПОГОДЫ в Сидуне

Время (UTC), дата Ветер
(напр.,м/с)
 
Видим.   Явления Облачность Т
(С)
Тd
(С)
f
(%)
Тe
(С)
Тes
(С)
Комфортность P
(гПа)
Po
(гПа)
Тmin
(С)
Tmax
(С)
R
(мм)
R24
(мм)
S
(см)
16 9.06 СЗ 4 н/о н/о +12.0 +10.4 90 +10 +10 1012.8 1010.9
17 9.06 СЗ 5 н/о н/о +11.3 +9.9 91 +9 +9 1013.0 1011.1
18 9.06 СЗ 5 н/о н/о +10.8 +9.6 92 +8 +8 1013.0 1011.1
19 9.06 СЗ 4 н/о н/о +9.7 +8.5 92 +7 +7 1013.0 1011.1
20 9.06 С 4 н/о н/о +9.0 +7.6 91 +6 +6 1013.7 1011.8
21 9.06 С 4 н/о н/о +8.7 +7.8 94 +5 +5 1014.5 1012.6
22 9.06 С 4 н/о н/о +8.5 +7.6 94 +5 +5 1015.1 1013.2
23 9.06 С 5 н/о н/о +9.3 +7.7 90 +6 +6 1016.1 1014.2 3
00 10.06 С 6 н/о н/о +11.8 +8.5 80 +9 +9 1016.6 1014.7
01 10.06 С 6 н/о н/о +14.7 +8.4 66 +13 +13 1016.7 1014.8
02 10.06 СЗ 6 н/о н/о +16.6 +5.9 49 +16 +16 1016.8 1014.9 +8.3
03 10.06 СЗ 7 н/о н/о +17.3 +5.3 45 +16 +16 1016.2 1014.3
04 10.06 СЗ 6 н/о н/о +18.4 +6.3 45 +18 +18 1015.5 1013.6
05 10.06 СЗ 5 н/о н/о +18.7 +5.5 42 +19 +19 1015.0 1013.1
06 10.06 СЗ 6 н/о н/о +18.8 +4.2 38 +19 +19 1014.8 1012.9
07 10.06 С 5 н/о н/о +18.5 +5.0 41 +18 +18 1015.0 1013.1
08 10.06 С 3 н/о н/о +15.5 +6.0 53 +15 +15 1015.2 1013.3
09 10.06 С 2 н/о н/о +10.8 +5.6 70 +10 +10 1015.6 1013.7
10 10.06 С 3 н/о н/о +9.5 +5.5 76 +7 +7 1016.2 1014.3
11 10.06 СВ 3 н/о н/о +7.0 +3.8 80 +4 +4 1016.4 1014.5
12 10.06 СВ 4 н/о н/о +6.5 +4.3 86 +3 +3 1016.5 1014.6
13 10.06 СВ 5 н/о н/о +8.1 +4.9 80 +5 +5 1016.4 1014.5
14 10.06 СВ 5 н/о н/о +7.5 +4.6 82 +4 +4 1016.1 1014.2 +19.3
15 10.06 В 5 н/о н/о +7.1 +4.2 82 +3 +3 1015.6 1013.7
16 10.06 СВ 4 н/о н/о +6.6 +3.9 83 +3 +3 1015.0 1013.1
17 10.06 С 5 н/о н/о +10.3 +5.3 71 +8 +8 1014.5 1012.6
18 10.06 СВ 7 н/о н/о +10.8 +5.6 70 +8 +8 1014.1 1012.2
19 10.06 С 9 н/о н/о +12.9 +6.9 67 +10 +10 1013.5 1011.6
20 10.06 С 9 н/о н/о +13.0 +6.8 66 +10 +10 1013.6 1011.7
21 10.06 С 8 н/о н/о +11.9 +6.2 68 +9 +9 1014.0 1012.1
22 10.06 С 8 н/о н/о +12.0 +6.3 68 +9 +9 1014.6 1012.7
23 10.06 С 8 н/о н/о +13.9 +6.7 62 +12 +12 1014.8 1012.9
00 11.06 С 8 н/о н/о +16.9 +7.5 54 +16 +16 1015.4 1013.5
01 11.06 С 9 н/о н/о +20.0 +7.7 45 +20 +20 1015.3 1013.4
02 11.06 С 10 н/о 1/0
[]
+22.1 +7.9 40 +23 +23 комфорт 1014.7 1012.8 +6.4
03 11.06 С 9 н/о н/о +23.9 +7.9 36 +24 +24 комфорт 1013.4 1011.5
04 11.06 С 7 н/о н/о +25.4 +7.5 32 +25 +25 комфорт 1012.3 1010.4
05 11.06 С 9 н/о 3/0
[]
+25.9 +8.4 33 +26 +26 жарко 1011.6 1009.7
06 11.06 С 8 н/о н/о +25.8 +7.9 32 +26 +26 жарко 1011.2 1009.3
07 11.06 С 4 н/о н/о +22.8 +11.2 48 +25 +25 комфорт 1011.4 1009.5
08 11.06 С 4 н/о 10/0
[]
+21.4 +10.6 50 +23 +23 комфорт 1011.4 1009.5
09 11.06 С 3 н/о н/о +20.5 +10.3 52 +22 +22 комфорт 1011.3 1009.4
10 11.06 С 4 н/о н/о +19.0 +11.3 61 +20 +20 1011.7 1009.8
11 11.06 С 5 н/о 10/10 1500 м
[]
+19.8 +10.8 56 +21 +21 комфорт 1011.7 1009.8
12 11.06 С 5 н/о н/о +19.8 +10.5 55 +21 +21 комфорт 1011.1 1009.2
13 11.06 С 7 н/о н/о +17.7 +13.0 74 +17 +17 1012.1 1010.2
14 11.06 С 7 н/о в посл. час дождь {туман} 9/0
[]
+17.3 +14.4 83 +16 +16 1011.2 1009.3 +26.5
15 11.06 С 8 н/о н/о +16.8 +15.2 90 +15 +15 1010.9 1009.0
16 11.06 С 8 н/о н/о +16.5 +15.0 91 +15 +15 1010.7 1008.8
17 11.06 СЗ 5 н/о в посл. час дождь {туман} 10/0 2000 м
[]
+16.1 +14.6 91 +15 +15 1010.9 1009.0 6
18 11.06 С 4 н/о н/о +15.9 +14.9 94 +15 +15 1010.7 1008.8
19 11.06 СЗ 5 н/о н/о +15.9 +15.1 95 +15 +15 1011.7 1009.8
20 11.06 З 5 н/о {туман} 10/0
[]
+15.6 +14.1 91 +14 +14 1012.7 1010.8
21 11.06 СЗ 4 н/о н/о +15.1 +13.5 90 +14 +14 1014.0 1012.1
22 11.06 СЗ 3 н/о н/о +14.4 +13.0 91 +13 +13 1014.6 1012.7
23 11.06 СЗ 4 н/о {туман} 6/6 1000 м
[]
+14.4 +12.4 88 +13 +13 1015.5 1013.6 7
00 12.06 СЗ 4 н/о н/о +16.7 +12.7 77 +16 +16 1016.2 1014.3
01 12.06 СЗ 4 н/о н/о +17.4 +13.1 76 +17 +17 1016.9 1015.0
02 12.06 СЗ 5 н/о {туман} н/о +16.0 +13.7 86 +15 +15 1017.3 1015.4 +14.0
03 12.06 З 7 н/о н/о +17.7 +11.3 66 +17 +17 1016.9 1015.0
04 12.06 З 7 н/о н/о +18.0 +12.9 72 +17 +17 1016.5 1014.6
05 12.06 З 7 н/о {туман} 5/5 1500 м
[]
+17.2 +11.0 67 +16 +16 1016.4 1014.5 1
06 12.06 ЮЗ 5 н/о н/о +17.6 +12.1 70 +17 +17 1016.8 1014.9
07 12.06 З 7 н/о н/о +16.6 +12.8 78 +15 +15 1017.3 1015.4
08 12.06 З 5 н/о 10/10 1500 м
[]
+15.5 +11.5 77 +14 +14 1017.9 1016.0
09 12.06 З 5 н/о н/о +14.8 +12.3 85 +13 +13 1018.7 1016.8
10 12.06 З 6 н/о н/о +14.3 +11.8 85 +12 +12 1019.4 1017.5
11 12.06 З 4 н/о 3/3 1500 м
[]
+14.2 +11.7 85 +13 +13 1019.9 1018.0
12 12.06 З 4 н/о н/о +13.1 +11.7 91 +11 +11 1020.2 1018.3
13 12.06 С 4 н/о н/о +10.5 +9.7 95 +8 +8 1020.3 1018.4
14 12.06 С 4 н/о н/о +9.6 +9.0 96 +7 +7 1020.4 1018.5 +20.0
15 12.06 СЗ 3 н/о н/о +9.6 +9.1 97 +7 +7 1020.5 1018.6
16 12.06 СЗ 3 н/о н/о +9.0 +8.6 97 +6 +6 1020.2 1018.3
17 12.06 СЗ 3 н/о н/о +9.3 +8.7 96 +7 +7 1020.2 1018.3
18 12.06 СЗ 4 н/о н/о +9.1 +8.6 97 +6 +6 1020.1 1018.2
19 12.06 СЗ 4 н/о н/о +8.8 +8.4 97 +6 +6 1020.2 1018.3
20 12.06 СЗ 4 н/о н/о +9.1 +8.6 97 +6 +6 1020.1 1018.2
21 12.06 СЗ 3 н/о н/о +8.7 +8.3 97 +6 +6 1020.3 1018.4
22 12.06 С 3 н/о н/о +7.5 +7.1 97 +5 +5 1020.6 1018.7
23 12.06 З 1 н/о 10/10 1000 м
[]
+9.7 +9.4 98 +10 +10 1021.8 1019.9 1
00 13.06 С 1 н/о н/о +11.4 +10.8 96 +12 +12 1022.5 1020.6
01 13.06 З 4 н/о н/о +13.6 +12.2 91 +12 +12 1022.7 1020.8
02 13.06 СЗ 5 н/о {туман} 4/4 1000 м
[]
+15.4 +12.0 80 +14 +14 1022.5 1020.6 +7.5
03 13.06 З 5 н/о н/о +16.4 +12.2 76 +15 +15 1021.8 1019.9
04 13.06 З 5 н/о н/о +17.7 +12.6 72 +17 +17 1020.8 1018.9
05 13.06 ЮЗ 5 н/о {туман} 10/0
[]
+17.0 +11.9 72 +16 +16 1020.3 1018.4 0.2
06 13.06 ЮЗ 5 н/о н/о +15.8 +12.7 82 +15 +15 1020.0 1018.1
07 13.06 З 5 н/о н/о +16.3 +12.1 76 +15 +15 1020.3 1018.4
08 13.06 ЮЗ 4 н/о 5/0
[]
+13.9 +11.8 87 +13 +13 1020.7 1018.8
09 13.06 З 3 н/о н/о +12.6 +11.0 90 +11 +11 1021.3 1019.4
10 13.06 З 3 н/о н/о +12.8 +11.5 92 +12 +12 1022.0 1020.1
11 13.06 СЗ 3 н/о 5/5 1000 м
[]
+10.2 +9.1 93 +8 +8 1022.2 1020.3
12 13.06 С 3 н/о н/о +10.2 +9.6 96 +8 +8 1022.8 1020.9
13 13.06 С 2 н/о н/о +9.5 +8.7 95 +8 +8 1022.4 1020.5
14 13.06 С 3 н/о 9/0
[]
+9.6 +9.0 96 +7 +7 1022.2 1020.3 +18.0
15 13.06 С 3 н/о н/о +9.1 +8.3 95 +7 +7 1022.1 1020.2
16 13.06 С 3 н/о н/о +8.9 +8.0 94 +7 +7 1021.8 1019.9
17 13.06 С 2 н/о н/о +7.2 +6.3 94 +5 +5 1021.8 1019.9
18 13.06 С 3 н/о н/о +6.8 +6.1 95 +4 +4 1021.7 1019.8
19 13.06 С 3 н/о н/о +7.0 +6.4 96 +4 +4 1021.4 1019.5
20 13.06 С 3 н/о н/о +6.6 +6.0 96 +4 +4 1021.3 1019.4
21 13.06 С 3 н/о н/о +6.5 +5.9 96 +3 +3 1021.8 1019.9
22 13.06 С 3 н/о н/о +6.5 +5.9 96 +3 +3 1022.1 1020.2
23 13.06 С 4 н/о н/о +8.6 +7.7 94 +6 +6 1022.7 1020.8 0.2
00 14.06 С 4 н/о н/о +12.1 +9.7 85 +10 +10 1023.1 1021.2
01 14.06 СЗ 5 н/о н/о +15.2 +10.0 71 +14 +14 1023.4 1021.5
02 14.06 С 5 н/о 10/0 2000 м
[]
+16.5 +10.1 66 +16 +16 1023.1 1021.2 +6.1
03 14.06 З 6 н/о н/о +17.1 +7.5 53 +16 +16 1022.4 1020.5
04 14.06 З 5 н/о н/о +17.2 +7.5 53 +17 +17 1021.8 1019.9
05 14.06 З 5 н/о н/о +17.7 +5.9 46 +17 +17 1021.1 1019.2
06 14.06 ЮЗ 5 н/о н/о +16.5 +10.4 67 +16 +16 1021.1 1019.2
07 14.06 ЮЗ 4 н/о н/о +16.1 +10.8 71 +15 +15 1021.1 1019.2
08 14.06 ЮЗ 4 н/о н/о +14.0 +11.0 82 +13 +13 1021.3 1019.4
09 14.06 ЮЗ 3 н/о н/о +11.9 +10.0 88 +10 +10 1021.7 1019.8
10 14.06 штиль 0 н/о н/о +10.9 +9.5 91 +10 +10 1022.3 1020.4
11 14.06 СВ 3 н/о 5/5 1500 м
[]
+8.6 +7.5 93 +6 +6 1022.6 1020.7
12 14.06 С 2 н/о н/о +9.1 +8.5 96 +8 +8 1022.5 1020.6
13 14.06 С 2 н/о н/о +9.8 +9.2 96 +8 +8 1022.6 1020.7
14 14.06 С 2 н/о 10/10 1500 м
[]
+10.4 +9.6 95 +9 +9 1022.5 1020.6 +18.5
15 14.06 С 2 н/о н/о +10.8 +10.0 95 +10 +10 1022.5 1020.6
16 14.06 С 2 н/о н/о +11.0 +10.2 95 +10 +10 1022.0 1020.1
17 14.06 С 3 н/о 10/10 1500 м
[]
+11.0 +10.1 94 +9 +9 1021.9 1020.0
18 14.06 С 3 н/о н/о +10.1 +9.2 94 +8 +8 1021.4 1019.5
19 14.06 С 3 н/о н/о +9.2 +8.4 95 +7 +7 1021.2 1019.3
20 14.06 С 2 н/о 5/5 1500 м
[]
+8.3 +7.5 95 +7 +7 1021.1 1019.2
21 14.06 С 4 н/о н/о +8.2 +7.4 95 +5 +5 1021.4 1019.5
22 14.06 С 3 н/о н/о +7.7 +7.0 95 +5 +5 1021.8 1019.9
23 14.06 С 2 н/о н/о +8.5 +7.9 96 +6 +6 1022.4 1020.5
00 15.06 С 3 н/о н/о +10.5 +8.6 88 +8 +8 1023.0 1021.1
01 15.06 С 4 н/о н/о +14.0 +9.2 73 +13 +13 1022.8 1020.9
02 15.06 С 6 н/о 9/0
[]
+16.5 +8.2 58 +16 +16 1022.6 1020.7 +7.4
03 15.06 С 5 н/о н/о +17.7 +6.6 48 +17 +17 1021.8 1019.9
04 15.06 СЗ 5 н/о н/о +18.1 +6.3 46 +18 +18 1020.6 1018.7
05 15.06 СЗ 4 н/о 9/0
[]
+18.2 +7.0 48 +18 +18 1019.8 1017.9
06 15.06 СЗ 5 н/о н/о +18.8 +6.6 45 +19 +19 1019.6 1017.7
07 15.06 СЗ 3 н/о н/о +17.3 +6.8 50 +17 +17 1019.7 1017.8
08 15.06 СЗ 3 н/о 9/0 2000 м
[]
+15.9 +6.9 55 +16 +16 1019.9 1018.0
09 15.06 СЗ 2 н/о н/о +13.6 +7.4 66 +13 +13 1020.3 1018.4
10 15.06 С 3 н/о н/о +12.2 +7.3 72 +11 +11 1020.7 1018.8
11 15.06 С 3 н/о 9/0 2000 м
[]
+11.3 +7.0 75 +10 +10 1021.1 1019.2
12 15.06 С 3 н/о н/о +10.4 +7.1 80 +8 +8 1021.0 1019.1
13 15.06 С 3 н/о н/о +10.8 +6.6 75 +9 +9 1020.5 1018.6
14 15.06 С 4 н/о 10/0 2000 м
[]
+10.9 +6.3 73 +9 +9 1020.3 1018.4 +19.2
15 15.06 СЗ 2 н/о н/о +11.0 +6.7 75 +10 +10 1020.1 1018.2
16 15.06 З 5 н/о н/о +11.0 +8.4 84 +8 +8 1020.4 1018.5
17 15.06 С 4 н/о в посл. час дождь {туман} 10/10 600 м
[]
+10.0 +8.8 92 +7 +7 1019.9 1018.0 2
18 15.06 СЗ 4 н/о н/о +10.9 +10.1 95 +8 +8 1020.1 1018.2
19 15.06 СЗ 5 н/о н/о +11.2 +10.4 95 +8 +8 1020.1 1018.2
20 15.06 З 6 н/о в посл. час дождь {туман} 5/5 1000 м
[]
+11.6 +8.3 80 +9 +9 1020.4 1018.5
21 15.06 ЮЗ 6 н/о н/о +12.1 +8.9 81 +9 +9 1020.8 1018.9
22 15.06 ЮЗ 4 н/о н/о +12.0 +9.6 85 +10 +10 1021.5 1019.6
23 15.06 ЮЗ 4 н/о {туман} 4/4 1500 м
[]
+13.4 +9.6 78 +12 +12 1022.1 1020.2 5
00 16.06 ЮЗ 4 н/о н/о +14.6 +9.8 73 +14 +14 1022.8 1020.9
01 16.06 ЮЗ 5 н/о н/о +15.3 +10.1 71 +14 +14 1023.3 1021.4
02 16.06 ЮЗ 6 н/о н/о +15.8 +9.5 66 +14 +14 1023.3 1021.4 +9.7
03 16.06 ЮЗ 6 н/о н/о +16.1 +9.5 65 +15 +15 1023.1 1021.2
04 16.06 ЮЗ 4 н/о н/о +14.7 +10.3 75 +13 +13 1023.0 1021.1
05 16.06 ЮЗ 5 н/о {туман} 5/5 1000 м
[]
+16.5 +10.1 66 +16 +16 1022.6 1020.7 0.2
06 16.06 ЮЗ 5 н/о н/о +16.0 +9.7 66 +15 +15 1022.7 1020.8
07 16.06 ЮЗ 4 н/о н/о +15.6 +9.1 65 +15 +15 1022.7 1020.8
08 16.06 З 3 н/о 4/4 600 м
[]
+13.6 +9.3 75 +12 +12 1023.0 1021.1
09 16.06 ЮЗ 2 н/о н/о +11.5 +9.1 85 +10 +10 1023.1 1021.2
10 16.06 ЮЗ 1 н/о н/о +10.1 +8.7 91 +10 +10 1023.7 1021.8
11 16.06 С 3 н/о н/о +7.8 +6.7 93 +5 +5 1024.1 1022.2
12 16.06 С 2 н/о н/о +7.3 +6.4 94 +5 +5 1024.5 1022.6
13 16.06 С 3 н/о н/о +6.9 +6.2 95 +4 +4 1024.8 1022.9
14 16.06 С 2 н/о 6/6 1500 м
[]
+6.8 +6.2 96 +4 +4 1024.7 1022.8 +17.0
15 16.06 С 3 н/о н/о +6.0 +5.4 96 +3 +3 1024.2 1022.3
16 16.06 СЗ 3 н/о н/о +8.4 +7.8 96 +6 +6 1023.9 1022.0

 

Местоположение метеостанции Сидуна (Южная Австралия, Австралия): широта -32.13 долгота 133.70 высота над уровнем моря 16 м.

В архиве по умолчанию представлена погода в Сидуне за последнюю неделю. Архивные данные за месяц целиком и за предыдущие месяцы, начиная с января 2011 года, Вы можете получить, выбрав интересующий диапазон дат из раскрывающегося списка и нажав кнопку "Ввод!".


*Определитесь, кто Вы:
робот инопланетянин человек

Внимание! Время в таблицах - всемирное. Для получения местного времени необходимо прибавить поправку, которая равна 9.5 ч.

Смотрите также архив погоды в соседних городах и на ближайших метеорологических станциях:

Погода в Миннипа Пирса (Южная Австралия, Австралия) (158 км)
Погода в Таркуле (Южная Австралия, Австралия) (178 км)
Погода в Уудинне (Южная Австралия, Австралия) (193 км)
Погода в Наллаборе (Южная Австралия, Австралия) (275 км)
Погода в Колте (Южная Австралия, Австралия) (295 км)
Погода в Камминсе (Южная Австралия, Австралия) (302 км)
Погода на Аэродроме Вумера (Южная Австралия, Австралия) (314 км)
Погода в Кливе аэропорту (Южная Австралия, Австралия) (316 км)
Погода в Порт-Линкольне (Южная Австралия, Австралия) (341 км)
Погода в Олимпик Дэм (Южная Австралия, Австралия) (354 км)

Пояснения к столбцам:

Ветер - указаны скорость ветра в м/с - средняя за 10 мин, порывы в срок и между сроками (в фигурных скобках) и направление, откуда дует ветер: С - северный, СВ - северо-восточный, В - восточный, ЮВ - юго-восточный, Ю - южный, ЮЗ - юго-западный, З - западный, СЗ - северо-западный.
Видимость - горизонтальная дальность видимости в метрах или километрах. При видимости от 1 до 10 км при отсутствии осадков обычно наблюдается дымка, при ухудшении видимости до 1 км и менее - туман. В сухую погоду видимость может ухудшаться дымом, пылью или мглою.
Явления - указаны атмосферные явления, наблюдавшиеся в срок или в последний час перед сроком; фигурными скобками обозначены явления, наблюдавшиеся между сроками (за 1-3 часа до срока); квадратными скобками обозначены град или гололедные отложения с указанием их диаметра в мм.
Облачность - указаны через наклонную черту общая и нижняя облачность в баллах и высота нижней границы облаков в метрах; квадратными скобками обозначены формы облаков: Ci - перистые, Cs - перисто-слоистые, Cc - перисто-кучевые, Ac - высококучевые, As - высокослоистые, Sc - слоисто-кучевые, Ns - слоисто-дождевые, Cu - кучевые, Cb - кучево-дождевые. Подробнее классификацию облаков см. в Атласе облаков (PDF).
T - Температура воздуха - температура, измеренная на высоте 2 м над землей.
Td - Температура точки росы - температура, при понижении до которой содержащийся в воздухе водяной пар достигнет насыщения.
f - Относительная влажность воздуха - влажноcть воздуха, измеренная на высоте 2 м над землей.
Te - Эффективная температура - температура, которую ощущает одетый по сезону человек в тени. Характеристика душности погоды. При расчете учитывается влияние влажности воздуха и скорости ветра на теплоощущения человека.
Tes - Эффективная температура на солнце - температура, которую ощущает человек, с поправкой на солнечный нагрев. Характеристика знойности погоды. Зависит от высоты солнца над горизонтом, облачности и скорости ветра. Ночью, в пасмурную погоду, а также при ветре 12 м/с и более поправка равна нулю.
P - Атмосферное давление - приведенное к уровню моря атмосферное давление.
Po - Атмосферное давление - измеренное на уровне метеостанции атмосферное давление.
Tmin - Минимальная температура - минимум температуры воздуха на высоте 2 м над землей.
Tmax - Максимальная температура - максимум температуры воздуха на высоте 2 м над землей.
R - Количество осадков - Количество выпавших осадков за период времени, мм. При наведении курсора мыши на число - период времени, за который выпало указанное количество осадков.
R24 - Количество осадков - Количество выпавших осадков за 24 часа, мм.
S - Снежный покров - Высота снежного покрова, см. При наведении курсора мыши на число - состояние снежного покрова и степень покрытия местности в баллах.